Вернуться в каталог

STARLINK-6314

АктивенСвязьVLEO
NORAD 56538·PAYLOAD·🇺🇸 United States

Запущен May 14, 2023 с Cape Canaveral Space Force Station

Loading…

Ближайшие Пролёты (ближайшие 24 часа)

TLE

СвежийSource: CelesTrak SupGP

Эпоха: Sep 15, 2026, 02:27 UTC

1 56538C 23065AM  26258.10256944 -.00028945  00000+0 -10487-2 0  2586
2 56538  43.0001 208.3963 0000613 259.0297 112.5290 15.27584587    15

Отслеживайте STARLINK-6314 в реальном времени с AllMySat

Download on the App Store